Regional Weather Roundup
Issued by NWS Boston, MA

Home | Current Version | Previous Version | Text Only | Print | Product List | Glossary On
Versions: 1 2 3 4 5 6 7 8 9 10 11 12 13 14 15 16 17 18 19 20 21 22 23 24 25 26 27 28 29 30 31 32 33 34 35 36 37 38 39 40 41 42 43 44 45 46 47 48 49 50
945
ASUS41 KBOX 221710
RWRBOX

REGIONAL WEATHER ROUNDUP
NATIONAL WEATHER SERVICE TAUNTON MA
1200 PM EST THU FEB 22 2018

NOTE:  "FAIR" INDICATES FEW OR NO CLOUDS BELOW 12,000 FEET WITH NO
SIGNIFICANT WEATHER AND/OR OBSTRUCTIONS TO VISIBILITY.

MAZALL-221800-
EASTERN MASSACHUSETTS

CITY           SKY/WX    TMP DP  RH WIND       PRES   REMARKS
BOSTON         LGT RAIN  40  23  50 NE14      30.66F
BEVERLY        CLOUDY    40  22  48 NE7       30.64F
LAWRENCE       CLOUDY    42  24  49 VRB6      30.67F
BEDFORD        LGTSLEET  41  24  51 NE5       30.65F
BLUE HILL        N/A     38  24  57 E10       30.62F WCI  31
NORWOOD        CLOUDY    42  25  50 NE9       30.66F
MARSHFIELD     PTSUNNY   41  28  60 NE10G22   30.64F
PLYMOUTH       CLOUDY    43  30  60 NE10G21   30.63F
TAUNTON        CLOUDY    43  22  43 N9G20     30.64F
NEW BEDFORD    CLOUDY    42  27  55 NE9       30.63F
$$

MAZALL-221800-
CAPE COD AND THE ISLANDS

CITY           SKY/WX    TMP DP  RH WIND       PRES   REMARKS
FALMOUTH       CLOUDY    41  27  56 NE15G26   30.63
HYANNIS        CLOUDY    43  28  55 NE13G22   30.60S
CHATHAM        LGT RAIN  42  31  64 NE13      30.63R
PROVINCETOWN   LGT RAIN  39  28  64 NE16      30.65R WCI  30
NANTUCKET      CLOUDY    43  33  68 NE17      30.60S
MARTHAS VNYRD  CLOUDY    43  33  68 NE14      30.61F
$$

MAZALL-221800-
CENTRAL AND WESTERN MASSACHUSETTS

CITY           SKY/WX    TMP DP  RH WIND       PRES   REMARKS
WORCESTER      LGT RAIN  37  22  54 N5        30.61F
FITCHBURG      CLOUDY    43  21  41 VRB3      30.64F
ORANGE         CLOUDY    37  17  44 NW8       30.65F WCI  31
SPRINGFIELD    LGTSLEET  40  22  47 N10       30.63
WESTFIELD      LGT RAIN  40  27  59 NE5       30.64F
NORTH ADAMS    LGT SNOW  33  27  78 NW5       30.65F WCI  29
PITTSFIELD     LGT SNOW  35  28  75 N6        30.59F WCI  30
$$

RIZALL-221800-
RHODE ISLAND

CITY           SKY/WX    TMP DP  RH WIND       PRES   REMARKS
PROVIDENCE     CLOUDY    44  31  60 NE12      30.63F
NEWPORT        LGT RAIN  43  27  53 NE8       30.63R
BLOCK ISLAND   LGT RAIN  41  33  73 NE12      30.61F
SMITHFIELD     LGT RAIN  42  29  59 MISG      30.63F
WESTERLY       CLOUDY    45  35  68 NE8       30.62S
$$

CTZALL-221800-
CONNECTICUT

CITY           SKY/WX    TMP DP  RH WIND       PRES   REMARKS
BRADLEY INTL   CLOUDY    40  27  59 N9        30.64F
HARTFORD       CLOUDY    42  23  46 N12       30.64F
BRIDGEPORT     CLOUDY    45  26  47 NE13      30.59F
DANBURY        CLOUDY    42  26  53 VRB7      30.60F
GROTON         CLOUDY    46  30  53 N7        30.61F
NEW HAVEN      CLOUDY    46  27  47 N12       30.60F
CHESTER        CLOUDY    45  28  53 N5        30.60F
MERIDEN        CLOUDY    42  23  46 N9        30.62F
WILLIMANTIC    CLOUDY    45  24  43 NE7       30.63F
OXFORD         CLOUDY    41  21  44 NE12      30.58F
$$

MEZ002-015-021-024-NHZ003-005-008-011-012-014-VTZ005-008-221800-
NORTHERN NEW ENGLAND

CITY           SKY/WX    TMP DP  RH WIND       PRES   REMARKS
PORTLAND ME    CLOUDY    38  11  32 NW8       30.68R
BANGOR ME      CLOUDY    32  14  47 VRB3      30.66F
CONCORD NH     CLOUDY    38  19  46 N6        30.65F
MANCHESTER NH  CLOUDY    40  18  41 NW5       30.64F
NASHUA NH      CLOUDY    39  19  45 N6        30.65F
PORTSMOUTH NH  CLOUDY    39  20  45 CALM      30.65F
JAFFREY NH     CLOUDY    38  15  39 VRB3      30.61F
KEENE NH       CLOUDY    37  16  42 N5        30.65F
BURLINGTON VT  CLOUDY    28  15  58 NW7       30.70F WCI  21
MT. WASHINGTON PTSUNNY   18 -11  27 W29         N/A  WCI  -2
$$

NYZ052-076-221800-
EASTERN NEW YORK

CITY           SKY/WX    TMP DP  RH WIND       PRES   REMARKS
ALBANY         LGT SNOW  30  26  85 N7        30.69F VSB 1   WCI  23
NEW YORK CITY  LGT RAIN  46  35  65 NE13      30.58F
$$

ANZALL-221800-
MARINE OBSERVATIONS

STATION/POSITION TIME  TEMP    WIND        PRES    VSBY  WAVE
                       AIR SEA DIR/SP/G                  HT/PER
                 (UTC) (F)     (DEG/KT/KT) (MB)    (MI)  (FT/S)
BOSTON BUOY      1650   39 40   30/ 12/ 14 1037.9R         3/ 6
BUZZARDS BAY     1600   40      40/ 15/ 16 1037.2R
NANTUCKET SOUND  1550   40 39   30/ 14/ 17 1036.2          2/ 4
MASS BAY-STELLWA 1604   38 40              1037.8R         4/ 5
ISLE OF SHOALS   1700   37      50/  9/ 10 1038.2F
S OF BLOCK IS    1643      39                N/A           4/15
$$

......................KEY.........................
  SKY/WX - SKY CONDITION/PRESENT WEATHER
  TMP    - TEMPERATURE IN FAHRENHEIT
  DWPT   - DEWPOINT IN FAHRENHEIT
  RH     - RELATIVE HUMIDITY IN PERCENT
  WIND   - DIRECTION AND SPEED IN MPH
  PRES   - MEAN SEA LEVEL PRESSURE IN INCHES OF HG
  WCI    - WIND CHILL INDEX
  VSB    - VISIBILITY IN MILES
  HX     - HEAT INDEX
  TC     - TEMPERATURE IN CELSIUS
  VRB    - VARIABLE WIND DIRECTION
  N/A    - NOT AVAILABLE




USA.gov is the U.S. government's official web portal to all federal, state and local government web resources and services.